Total_Precipitation_Accumulation
0.00 0.02 0.03 0.03 0.02 0.01 0.02 0.00 0.03 0.05 0.07 0.09 0.02 0.04 0.04 0.01 0.00 0.00 0.00 0.00 0.00 0.01 0.05 0.06 0.05 0.08 0.06 0.04 0.01 0.04 0.06 0.11 0.05 0.01 0.01 0.01 0.01 0.01 0.01 0.03 0.08 0.10 0.19
0.01 0.03 0.05 0.03 0.03 0.04 0.03 0.02 0.02 0.02 0.01 0.05 0.07 0.06 0.07 0.04 0.01 0.00 0.00 0.00 0.00 0.04 0.08 0.06 0.12 0.07 0.04 0.02 0.01 0.01 0.02 0.00 0.00 0.00 0.00 0.00 0.00 0.00 0.00 0.00 0.01 0.02 0.03
0.02 0.05 0.04 0.08 0.10 0.07 0.05 0.07 0.04 0.04 0.05 0.04 0.07 0.06 0.05 0.06 0.02 0.00 0.00 0.00 0.02 0.17 0.21 0.06 0.04 0.02 0.01 0.00 0.01 0.00 0.00 0.00 0.00 0.00 0.00 0.00 0.00 0.00 0.00 0.00 0.00 0.00 0.00
0.03 0.08 0.10 0.09 0.16 0.18 0.12 0.08 0.07 0.05 0.06 0.07 0.04 0.08 0.09 0.08 0.03 0.00 0.00 0.00 0.08 0.22 0.27 0.07 0.02 0.01 0.00 0.00 0.00 0.00 0.00 0.00 0.00 0.00 0.00 0.00 0.00 0.00 0.00 0.00 0.00 0.00 0.00
0.02 0.11 0.11 0.09 0.15 0.19 0.20 0.14 0.08 0.08 0.05 0.06 0.05 0.08 0.12 0.14 0.05 0.01 0.02 0.03 0.14 0.16 0.12 0.04 0.01 0.00 0.00 0.00 0.00 0.00 0.00 0.00 0.00 0.00 0.00 0.00 0.00 0.00 0.00 0.00 0.00 0.00 0.00
0.03 0.10 0.15 0.21 0.21 0.23 0.27 0.17 0.12 0.08 0.06 0.04 0.06 0.10 0.14 0.17 0.12 0.03 0.07 0.08 0.06 0.07 0.07 0.02 0.01 0.00 0.00 0.00 0.00 0.00 0.00 0.00 0.00 0.00 0.00 0.00 0.00 0.00 0.00 0.00 0.00 0.00 0.00
0.11 0.12 0.28 0.44 0.43 0.22 0.28 0.28 0.21 0.20 0.18 0.11 0.10 0.09 0.11 0.17 0.23 0.10 0.09 0.09 0.07 0.04 0.05 0.03 0.00 0.00 0.00 0.00 0.00 0.00 0.00 0.00 0.00 0.00 0.00 0.00 0.00 0.00 0.00 0.00 0.00 0.00 0.00
0.46 0.41 0.44 0.48 0.51 0.48 0.33 0.23 0.17 0.16 0.26 0.21 0.17 0.16 0.21 0.32 0.29 0.21 0.11 0.08 0.09 0.06 0.04 0.02 0.00 0.00 0.00 0.00 0.00 0.00 0.00 0.00 0.00 0.00 0.00 0.00 0.00 0.00 0.00 0.00 0.00 0.00 0.00
0.65 0.65 0.27 0.28 0.29 0.26 0.19 0.11 0.04 0.03 0.09 0.15 0.18 0.24 0.31 0.39 0.29 0.23 0.18 0.13 0.22 0.17 0.07 0.03 0.00 0.00 0.00 0.00 0.00 0.00 0.00 0.00 0.00 0.00 0.00 0.00 0.00 0.00 0.00 0.00 0.00 0.00 0.00
0.42 0.71 0.74 0.72 0.57 0.35 0.24 0.13 0.06 0.06 0.09 0.26 0.12 0.15 0.18 0.16 0.11 0.14 0.10 0.07 0.18 0.21 0.11 0.03 0.01 0.00 0.00 0.00 0.00 0.00 0.00 0.00 0.00 0.00 0.00 0.00 0.00 0.00 0.00 0.00 0.00 0.00 0.00
0.11 0.33 0.78 1.01 0.83 0.64 0.48 0.30 0.15 0.07 0.02 0.20 0.17 0.10 0.13 0.07 0.04 0.03 0.02 0.02 0.04 0.10 0.13 0.06 0.03 0.01 0.00 0.00 0.00 0.00 0.00 0.00 0.00 0.00 0.00 0.00 0.00 0.00 0.00 0.00 0.00 0.00 0.00
0.03 0.06 0.54 0.80 0.62 0.53 0.48 0.40 0.28 0.16 0.09 0.09 0.21 0.16 0.11 0.09 0.03 0.04 0.02 0.02 0.01 0.03 0.06 0.08 0.08 0.03 0.00 0.00 0.00 0.00 0.00 0.00 0.00 0.00 0.00 0.00 0.00 0.00 0.00 0.00 0.00 0.00 0.00
0.01 0.01 0.08 0.40 0.39 0.32 0.37 0.30 0.20 0.10 0.09 0.07 0.17 0.29 0.19 0.14 0.13 0.06 0.02 0.03 0.01 0.01 0.02 0.02 0.04 0.02 0.00 0.00 0.00 0.00 0.00 0.00 0.00 0.00 0.00 0.00 0.00 0.01 0.01 0.00 0.00 0.00 0.00
0.01 0.01 0.04 0.10 0.20 0.16 0.18 0.25 0.15 0.06 0.06 0.06 0.07 0.32 0.29 0.16 0.17 0.17 0.03 0.05 0.11 0.06 0.01 0.02 0.00 0.01 0.00 0.00 0.00 0.00 0.00 0.00 0.00 0.00 0.00 0.00 0.00 0.00 0.01 0.02 0.00 0.00 0.00
0.00 0.00 0.00 0.01 0.06 0.10 0.10 0.19 0.18 0.06 0.05 0.03 0.05 0.09 0.41 0.30 0.23 0.20 0.24 0.10 0.10 0.12 0.08 0.11 0.06 0.03 0.04 0.01 0.00 0.00 0.00 0.00 0.00 0.00 0.00 0.00 0.00 0.00 0.02 0.06 0.05 0.01 0.00
0.00 0.00 0.00 0.01 0.01 0.05 0.07 0.22 0.36 0.09 0.02 0.01 0.02 0.02 0.07 0.36 0.33 0.40 0.26 0.17 0.12 0.09 0.08 0.11 0.10 0.07 0.04 0.06 0.04 0.04 0.00 0.00 0.00 0.00 0.00 0.00 0.00 0.00 0.00 0.07 0.12 0.10 0.06
0.03 0.00 0.00 0.00 0.00 0.01 0.03 0.24 0.76 0.42 0.07 0.02 0.01 0.01 0.01 0.08 0.35 0.33 0.67 0.44 0.14 0.12 0.15 0.17 0.15 0.17 0.15 0.08 0.04 0.03 0.04 0.00 0.00 0.00 0.00 0.00 0.00 0.00 0.00 0.00 0.02 0.09 0.15
0.08 0.01 0.00 0.00 0.00 0.02 0.03 0.09 0.61 0.72 0.37 0.06 0.02 0.02 0.01 0.00 0.05 0.25 0.28 0.59 0.54 0.37 0.29 0.22 0.21 0.23 0.21 0.21 0.19 0.12 0.07 0.04 0.01 0.00 0.00 0.00 0.00 0.00 0.00 0.00 0.00 0.01 0.06
0.08 0.06 0.02 0.00 0.00 0.01 0.06 0.08 0.24 0.65 0.70 0.39 0.12 0.04 0.01 0.01 0.01 0.05 0.14 0.17 0.29 0.32 0.30 0.31 0.29 0.23 0.21 0.15 0.10 0.11 0.13 0.10 0.03 0.01 0.00 0.00 0.00 0.00 0.00 0.00 0.00 0.00 0.00
0.12 0.11 0.05 0.01 0.00 0.00 0.05 0.14 0.24 0.51 0.73 0.74 0.35 0.17 0.07 0.04 0.04 0.05 0.08 0.12 0.12 0.15 0.16 0.13 0.15 0.16 0.14 0.09 0.08 0.06 0.05 0.04 0.03 0.02 0.01 0.01 0.00 0.00 0.00 0.00 0.00 0.00 0.00
0.23 0.16 0.07 0.02 0.01 0.01 0.05 0.05 0.16 0.31 0.59 0.87 0.73 0.45 0.28 0.18 0.10 0.09 0.09 0.11 0.14 0.08 0.06 0.08 0.08 0.07 0.06 0.07 0.13 0.10 0.05 0.03 0.02 0.01 0.01 0.00 0.00 0.00 0.00 0.00 0.00 0.00 0.00
0.19 0.19 0.12 0.06 0.05 0.07 0.12 0.11 0.12 0.21 0.45 0.78 0.92 0.79 0.72 0.60 0.43 0.22 0.14 0.10 0.08 0.11 0.06 0.05 0.08 0.09 0.06 0.07 0.07 0.08 0.06 0.04 0.02 0.01 0.00 0.00 0.00 0.00 0.00 0.00 0.00 0.00 0.00
0.26 0.22 0.31 0.28 0.21 0.24 0.26 0.23 0.19 0.25 0.40 0.80 1.10 0.98 0.93 0.85 0.73 0.74 0.74 0.52 0.23 0.17 0.22 0.21 0.23 0.20 0.17 0.13 0.13 0.14 0.09 0.03 0.02 0.01 0.01 0.00 0.00 0.00 0.00 0.00 0.00 0.00 0.00
0.39 0.35 0.45 0.85 1.08 0.36 0.31 0.62 0.65 0.36 0.35 0.45 0.95 0.98 0.66 0.61 0.59 0.57 0.62 0.89 1.20 1.07 0.65 0.41 0.37 0.39 0.44 0.39 0.38 0.32 0.27 0.22 0.18 0.09 0.03 0.02 0.01 0.01 0.01 0.01 0.01 0.03 0.07
0.22 0.27 0.39 0.69 1.35 1.20 0.78 1.17 1.29 1.02 0.54 0.47 0.62 1.02 0.95 0.79 0.62 0.57 0.52 0.57 0.70 1.00 1.25 0.99 0.68 0.64 0.56 0.44 0.33 0.25 0.32 0.43 0.56 0.49 0.25 0.13 0.09 0.06 0.06 0.07 0.09 0.11 0.13
0.27 0.35 0.37 0.51 0.78 1.30 1.38 1.31 1.30 1.27 1.25 0.95 0.82 1.13 1.11 0.88 0.87 0.75 0.65 0.58 0.59 0.67 0.78 0.99 0.86 0.61 0.60 0.63 0.58 0.48 0.43 0.51 0.52 0.70 0.61 0.39 0.36 0.27 0.18 0.16 0.14 0.13 0.14